Alva, OK

8:50 PM CDT on April 24, 2018 (GMT -0500)
Alva Regional

Weather History for KAVK - May, 2014

Change the Weather History Date:

Sunday, May 11, 2014

  Actual Average Record
Temperature  
Mean Temperature 78 °F -  
Max Temperature 89 °F 78 °F 101 °F (1963)
Min Temperature 64 °F 54 °F 39 °F (1981)
Cooling Degree Days 12    
Growing Degree Days 28 (Base 50)    
Moisture  
Dew Point 62 °F    
Average Humidity 57    
Maximum Humidity 78    
Minimum Humidity 33    
Precipitation  
Precipitation 0.00 in - - ()
Sea Level Pressure  
Sea Level Pressure 29.59 in    
Wind  
Wind Speed 23 mph (South)    
Max Wind Speed 37 mph    
Max Gust Speed 50 mph    
Visibility 10 miles    
Events Thunderstorm    
Averages and records for this station are not official NWS values.
T = Trace of Precipitation, MM = Missing Value Source: NWS Daily Summary

Daily Weather History Graph

Daily Weather History Graph

Search for Another Location

Airport or City:

Astronomy

May. 11, 2014 Rise Set
Actual Time 6:30 AM CDT 8:32 PM CDT
Civil Twilight 6:02 AM CDT 9:00 PM CDT
Nautical Twilight 5:27 AM CDT 9:35 PM CDT
Astronomical Twilight 4:49 AM CDT 10:13 PM CDT
Moon 5:34 PM CDT (5/11) 4:31 AM CDT (5/11)
Length of Visible Light 14h 58m
Length of Day
14h 01m
Waxing Gibbous, 89% of the Moon is Illuminated
May 11
Waxing Gibbous
May 14
Full
May 21
Last Quarter
May 28
New
Jun 5
First Quarter

Hourly Weather History & Observations

Time (CDT) Temp. Heat Index Dew Point Humidity Pressure Visibility Wind Dir Wind Speed Gust Speed Precip Events Conditions
12:15 AM 75.2 °F - 62.6 °F 65% 29.64 in 10.0 mi South 20.7 mph 28.8 mph N/A   Clear
12:35 AM 75.2 °F - 62.6 °F 65% 29.64 in 10.0 mi South 19.6 mph 27.6 mph N/A   Clear
12:55 AM 73.4 °F - 62.6 °F 69% 29.64 in 10.0 mi South 18.4 mph 27.6 mph N/A   Clear
1:15 AM 73.4 °F - 62.6 °F 69% 29.64 in 10.0 mi SSE 17.3 mph 24.2 mph N/A   Partly Cloudy
1:35 AM 73.4 °F - 64.4 °F 73% 29.64 in 10.0 mi SSE 16.1 mph 25.3 mph N/A   Partly Cloudy
1:55 AM 73.4 °F - 64.4 °F 73% 29.63 in 10.0 mi SSE 18.4 mph 21.9 mph N/A   Partly Cloudy
2:15 AM 71.6 °F - 64.4 °F 78% 29.63 in 10.0 mi South 16.1 mph 23.0 mph N/A   Partly Cloudy
2:35 AM 71.6 °F - 64.4 °F 78% 29.63 in 10.0 mi South 18.4 mph 21.9 mph N/A   Partly Cloudy
2:55 AM 71.6 °F - 64.4 °F 78% 29.62 in 10.0 mi South 17.3 mph 25.3 mph N/A   Partly Cloudy
3:15 AM 73.4 °F - 64.4 °F 73% 29.62 in 10.0 mi South 25.3 mph 28.8 mph N/A   Clear
3:35 AM 73.4 °F - 64.4 °F 73% 29.61 in 10.0 mi South 20.7 mph 28.8 mph N/A   Clear
3:55 AM 71.6 °F - 64.4 °F 78% 29.61 in 10.0 mi South 20.7 mph 31.1 mph N/A   Clear
4:15 AM 71.6 °F - 64.4 °F 78% 29.61 in 10.0 mi South 19.6 mph 27.6 mph N/A   Clear
4:35 AM 71.6 °F - 64.4 °F 78% 29.61 in 10.0 mi South 18.4 mph 21.9 mph N/A   Clear
4:55 AM 71.6 °F - 64.4 °F 78% 29.61 in 10.0 mi South 16.1 mph 29.9 mph N/A   Clear
5:15 AM 71.6 °F - 64.4 °F 78% 29.61 in 10.0 mi South 20.7 mph 26.5 mph N/A   Clear
5:35 AM 71.6 °F - 64.4 °F 78% 29.61 in 10.0 mi South 19.6 mph 28.8 mph N/A   Clear
5:55 AM 71.6 °F - 64.4 °F 78% 29.61 in 10.0 mi South 21.9 mph 26.5 mph N/A   Clear
6:15 AM 71.6 °F - 64.4 °F 78% 29.62 in 10.0 mi South 18.4 mph 28.8 mph N/A   Clear
6:35 AM 71.6 °F - 64.4 °F 78% 29.61 in 10.0 mi South 19.6 mph 26.5 mph N/A   Clear
6:55 AM 71.6 °F - 64.4 °F 78% 29.61 in 10.0 mi South 21.9 mph 28.8 mph N/A   Clear
7:15 AM 71.6 °F - 64.4 °F 78% 29.62 in 10.0 mi South 21.9 mph 29.9 mph N/A   Clear
7:35 AM 71.6 °F - 64.4 °F 78% 29.62 in 10.0 mi South 20.7 mph 35.7 mph N/A   Clear
7:55 AM 73.4 °F - 64.4 °F 73% 29.63 in 10.0 mi South 26.5 mph 36.8 mph N/A   Clear
8:15 AM 73.4 °F - 64.4 °F 73% 29.63 in 10.0 mi South 29.9 mph 38.0 mph N/A   Clear
8:35 AM 75.2 °F - 64.4 °F 69% 29.63 in 10.0 mi South 28.8 mph 35.7 mph N/A   Partly Cloudy
8:55 AM 75.2 °F - 64.4 °F 69% 29.63 in 10.0 mi South 25.3 mph 39.1 mph N/A   Clear
9:15 AM 77.0 °F - 64.4 °F 65% 29.63 in 10.0 mi SSW 26.5 mph 42.6 mph N/A   Clear
9:35 AM 77.0 °F - 62.6 °F 61% 29.63 in 10.0 mi South 29.9 mph 41.4 mph N/A   Clear
9:55 AM 78.8 °F - 62.6 °F 57% 29.63 in 10.0 mi South 33.4 mph 43.7 mph N/A   Clear
10:15 AM 80.6 °F 81.8 °F 62.6 °F 54% 29.63 in 10.0 mi South 25.3 mph 42.6 mph N/A   Clear
10:35 AM 82.4 °F 83.4 °F 62.6 °F 51% 29.64 in 10.0 mi South 27.6 mph 39.1 mph N/A   Clear
10:55 AM 82.4 °F 83.4 °F 62.6 °F 51% 29.64 in 10.0 mi SSW 27.6 mph 38.0 mph N/A   Clear
11:15 AM 82.4 °F 83.4 °F 62.6 °F 51% 29.64 in 10.0 mi SSW 27.6 mph 36.8 mph N/A   Clear
11:35 AM 82.4 °F 83.4 °F 62.6 °F 51% 29.64 in 10.0 mi SSW 27.6 mph 40.3 mph N/A   Clear
11:55 AM 84.2 °F 85.0 °F 62.6 °F 48% 29.64 in 10.0 mi South 26.5 mph 35.7 mph N/A   Clear
12:15 PM 84.2 °F 84.4 °F 60.8 °F 45% 29.64 in 10.0 mi SSW 28.8 mph 39.1 mph N/A   Clear
12:35 PM 86.0 °F 86.1 °F 60.8 °F 43% 29.63 in 10.0 mi SSW 27.6 mph 39.1 mph N/A   Clear
12:55 PM 86.0 °F 85.4 °F 59.0 °F 40% 29.62 in 10.0 mi SSW 27.6 mph 43.7 mph N/A   Clear
1:15 PM 86.0 °F 85.4 °F 59.0 °F 40% 29.60 in 10.0 mi South 29.9 mph 40.3 mph N/A   Clear
1:35 PM 87.8 °F 87.1 °F 59.0 °F 38% 29.59 in 10.0 mi SSW 31.1 mph 42.6 mph N/A   Clear
1:55 PM 89.6 °F 88.9 °F 59.0 °F 36% 29.59 in 10.0 mi South 28.8 mph 40.3 mph N/A   Clear
2:15 PM 89.6 °F 88.9 °F 59.0 °F 36% 29.58 in 10.0 mi South 36.8 mph 42.6 mph N/A   Clear
2:35 PM 89.6 °F 88.9 °F 59.0 °F 36% 29.57 in 10.0 mi SSW 28.8 mph 41.4 mph N/A   Clear
2:55 PM 89.6 °F 88.9 °F 59.0 °F 36% 29.56 in 10.0 mi South 35.7 mph 46.0 mph N/A   Clear
3:15 PM 89.6 °F 88.9 °F 59.0 °F 36% 29.57 in 10.0 mi South 26.5 mph 40.3 mph N/A   Partly Cloudy
3:35 PM 89.6 °F 88.9 °F 59.0 °F 36% 29.56 in 10.0 mi South 28.8 mph 42.6 mph N/A   Scattered Clouds
3:55 PM 89.6 °F 88.1 °F 57.2 °F 33% 29.54 in 10.0 mi South 28.8 mph 41.4 mph N/A   Scattered Clouds
4:15 PM 89.6 °F 88.1 °F 57.2 °F 33% 29.52 in 10.0 mi South 32.2 mph 43.7 mph N/A   Scattered Clouds
4:35 PM 89.6 °F 88.1 °F 57.2 °F 33% 29.51 in 10.0 mi South 36.8 mph 44.9 mph N/A   Partly Cloudy
4:55 PM 89.6 °F 88.1 °F 57.2 °F 33% 29.51 in 10.0 mi South 34.5 mph 46.0 mph N/A   Clear
5:15 PM 89.6 °F 88.9 °F 59.0 °F 36% 29.51 in 10.0 mi South 28.8 mph 44.9 mph N/A   Clear
5:35 PM 89.6 °F 88.1 °F 57.2 °F 33% 29.52 in 10.0 mi South 31.1 mph 42.6 mph N/A   Partly Cloudy
5:55 PM 89.6 °F 88.9 °F 59.0 °F 36% 29.53 in 10.0 mi South 26.5 mph 39.1 mph N/A   Clear
6:15 PM 89.6 °F 88.9 °F 59.0 °F 36% 29.52 in 10.0 mi South 29.9 mph 42.6 mph N/A   Partly Cloudy
6:35 PM 87.8 °F 87.1 °F 59.0 °F 38% 29.50 in 10.0 mi SSE 32.2 mph 43.7 mph N/A   Clear
6:55 PM 87.8 °F 87.1 °F 59.0 °F 38% 29.49 in 10.0 mi South 29.9 mph 40.3 mph N/A   Clear
7:15 PM 86.0 °F 86.1 °F 60.8 °F 43% 29.49 in 10.0 mi South 33.4 mph 43.7 mph N/A   Clear
7:35 PM 84.2 °F 84.4 °F 60.8 °F 45% 29.50 in 10.0 mi South 25.3 mph 41.4 mph N/A   Clear
7:55 PM 84.2 °F 84.4 °F 60.8 °F 45% 29.51 in 10.0 mi South 28.8 mph 43.7 mph N/A   Clear
8:15 PM 82.4 °F 82.9 °F 60.8 °F 48% 29.50 in 10.0 mi SSE 25.3 mph 41.4 mph N/A   Clear
8:35 PM 82.4 °F 83.4 °F 62.6 °F 51% 29.49 in 10.0 mi South 27.6 mph 43.7 mph N/A   Clear
8:55 PM 80.6 °F 81.8 °F 62.6 °F 54% 29.47 in 10.0 mi South 32.2 mph 46.0 mph N/A Thunderstorm Clear
9:15 PM 80.6 °F 81.8 °F 62.6 °F 54% 29.45 in 10.0 mi South 34.5 mph 49.5 mph N/A Thunderstorm Clear
9:35 PM 80.6 °F 81.8 °F 62.6 °F 54% 29.46 in 10.0 mi South 36.8 mph 49.5 mph N/A Thunderstorm Clear
9:55 PM 78.8 °F - 62.6 °F 57% 29.47 in 10.0 mi South 35.7 mph 47.2 mph N/A Thunderstorm Partly Cloudy
10:15 PM 78.8 °F - 62.6 °F 57% 29.50 in 10.0 mi South 32.2 mph 44.9 mph N/A   Partly Cloudy
10:35 PM 78.8 °F - 62.6 °F 57% 29.60 in 10.0 mi SW 24.2 mph 36.8 mph N/A   Scattered Clouds
10:55 PM 77.0 °F - 60.8 °F 57% 29.61 in 10.0 mi WSW 18.4 mph 26.5 mph N/A   Mostly Cloudy
11:15 PM 69.8 °F - 57.2 °F 64% 29.63 in 10.0 mi NW 11.5 mph 24.2 mph N/A   Overcast
11:35 PM 66.2 °F - 57.2 °F 73% 29.63 in 10.0 mi NNW 13.8 mph 18.4 mph N/A   Overcast
11:55 PM 64.4 °F - 57.2 °F 77% 29.63 in 10.0 mi NNW 13.8 mph - N/A   Overcast